Home   Weather   Bingen am Rhein   Past weeks

Flag for Germany Past Weather in Bingen am Rhein, Rhineland-Palatinate, Germany — Yesterday and Last 2 Weeks

Now
61 °F

Broken clouds.


Feels Like: 61 °F
Forecast: 52 / 61 °F
Wind: 5 mph from West

Location: Wiesbaden Airport

Current Time: Sep 30, 2016 at 5:21:55 PM

Latest Report: Sep 30, 2016 at 4:58 PM


Visibility: N/A

Pressure: 29.99 "Hg

Humidity: 63%

Dew Point: 48 °F

Location of Bingen am RheinLocation

Past Weather in Bingen am Rhein — Graph

°F

Bingen am Rhein Temperature Yesterday

Maximum temperature yesterday: 79 °F (at 3:58 PM)
Minimum temperature yesterday: 52 °F (at 4:58 AM)
Average temperature yesterday: 65 °F

High & Low Weather Summary for the Past Weeks

 TemperatureHumidityPressure
High81 °F (Sep 15, 3:58 PM)88% (Sep 28, 5:58 AM)30.37 "Hg (Sep 28, 5:58 AM)
Low45 °F (Sep 22, 5:58 AM)29% (Sep 29, 4:58 PM)29.83 "Hg (Sep 15, 3:58 PM)
Average61 °F62%30.12 "Hg
* Reported Sep 15 3:58 PM — Sep 30 3:58 PM, Bingen am Rhein, Weather by CustomWeather, © 2016

Note: Actual official high and low records may vary slightly from our data, if they occured in-between our weather recording intervals... More about our weather records

Advertising

Bingen am Rhein Weather History for the Previous 24 Hours

Scroll right to see more
 ConditionsComfort  
Time TempWeatherWind HumidityBarometerVisibility
3:58 PM
Fri, Sep 30
61 °FMore clouds than sun.6 mph59%30.01 "HgN/A
2:58 PM57 °FOvercast.6 mph77%30.01 "HgN/A
1:59 PM61 °FLight rain. Overcast.12 mph63%30.01 "HgN/A
12:58 PM61 °FOvercast.6 mph66%30.00 "HgN/A
11:58 AM62 °FOvercast.8 mph63%29.99 "HgN/A
10:58 AM62 °FOvercast.5 mph71%29.98 "HgN/A
9:58 AM61 °FOvercast.No wind72%29.97 "HgN/A
8:58 AM61 °FOvercast.No wind68%29.96 "HgN/A
7:58 AM61 °FOvercast.3 mph66%29.96 "HgN/A
6:58 AM61 °FOvercast.2 mph71%29.94 "HgN/A
5:58 AM59 °FOvercast.3 mph74%29.95 "HgN/A
4:58 AM59 °FMostly cloudy.No wind73%29.94 "HgN/A
3:58 AM57 °FOvercast.3 mph76%29.95 "HgN/A
2:58 AM59 °FPassing clouds.3 mph72%29.97 "HgN/A
1:58 AM61 °FClear.2 mph68%29.97 "HgN/A
12:58 AM61 °FClear.3 mph68%29.98 "HgN/A
11:58 PM
Thu, Sep 29
61 °FClear.7 mph68%29.99 "HgN/A
10:58 PM64 °FClear.6 mph60%29.99 "HgN/A
9:58 PM68 °FClear.8 mph52%29.99 "HgN/A
8:58 PM70 °FClear.10 mph46%29.98 "HgN/A
7:58 PM72 °FPassing clouds.13 mph41%29.98 "HgN/A
6:58 PM73 °FSunny.12 mph36%29.97 "HgN/A
5:58 PM77 °FSunny.16 mph30%29.97 "HgN/A
Weather by CustomWeather, © 2016

See weather overviewHow to use our weather pages